SCP
0 0 0 0 0 0 0 0 0 0 0 0 0 0 0 0 0 0 0 0 0 0 0 0 0 0 0 0 0 0 0 0 0 0 0 0 0 0 0 0 0 0 0
0 0 0 0 0 0 0 0 0 0 0 0 0 0 0 0 0 0 0 0 0 0 0 0 0 0 0 0 0 0 0 0 0 0 0 0 0 0 0 0 0 0 0
0 0 0 0 0 0 0 0 0 0 0 0 0 0 0 0 0 0 0 0 0 0 0 0 0 0 0 0 0 0 0 0 0 0 0 0 -0 -0 -0 -0 0 0 0
0 0 0 0 0 0 0 0 0 0 0 0 0 0 0 0 0 0 0 0 0 0 0 0 0 0 0 0 0 0 0 0 0 0 0 0 0 0 0 -0 -0 -0 -0
0 0 0 0 0 0 0 0 0 0 0 0 0 0 0 0 0 0 0 0 0 0 0 0 0 0 0 0 0 0 0 0 0 0 0 0 0 -0 0 0 0 -0 -0
0 0 0 0 0 0 0 0 0 0 0 0 0 0 0 0 0 0 0 0 0 0 0 0 0 0 0 0 0 0 0 0 0 0 0 0 0 0 0 0 0 -0 -0
0 0 0 0 0 0 0 0 0 0 0 0 0 0 0 0 0 0 0 0 0 0 0 0 0 0 0 0 0 0 0 0 0 0 0 0 0 0 0 0 0 0 0
0 0 0 0 0 0 0 0 0 0 0 0 0 0 0 0 0 0 0 0 0 0 0 0 0 0 0 0 0 0 0 0 0 0 0 0 0 0 0 0 0 0 0
0 0 0 0 0 0 0 0 0 0 0 0 0 0 0 0 0 0 0 0 0 0 0 0 0 0 0 0 0 0 0 0 0 0 0 0 0 0 0 0 0 0 0
0 0 0 0 0 0 0 0 0 0 0 0 0 0 0 0 0 0 0 0 0 0 0 0 0 0 0 0 0 0 0 0 0 0 0 0 0 0 0 0 0 0 0
0 0 0 0 0 0 0 0 0 0 0 0 0 0 0 0 0 0 0 0 0 0 0 0 0 0 0 0 0 0 0 0 0 0 -0 0 0 0 0 0 0 0 0
0 0 0 0 0 0 0 0 0 0 0 0 0 0 0 0 0 0 0 0 0 0 0 0 0 0 0 0 0 0 0 0 0 -0 -0 -0 -0 0 0 0 0 0 0
0 0 0 0 0 0 0 0 0 0 0 0 0 0 0 0 0 0 0 0 0 0 0 0 0 0 0 0 0 0 0 0 -0 -0 -0 0 0 0 0 0 0 0 0
0 0 0 0 0 0 0 0 0 0 0 0 0 0 0 0 0 0 0 0 0 0 0 0 0 0 0 0 0 0 0 0 0 0 0 0 0 0 0 0 0 0 0
0 0 0 0 0 0 0 0 0 0 0 0 0 0 0 0 0 0 0 0 0 0 0 0 0 0 0 0 0 0 0 0 0 0 0 0 0 0 0 0 0 0 0
0 0 0 0 0 0 0 0 0 0 0 0 0 0 0 0 0 0 0 0 0 0 0 0 0 0 0 0 0 0 0 0 0 0 0 0 0 0 0 0 0 0 0
0 0 0 0 0 0 0 0 0 0 0 0 0 0 0 0 0 0 0 0 0 0 0 0 0 0 0 0 0 0 0 0 0 0 0 0 0 0 0 0 0 0 0
0 0 0 0 0 0 0 0 0 0 0 0 0 0 0 0 0 0 0 0 0 0 0 0 0 0 0 0 0 0 0 0 0 0 0 0 0 0 0 0 0 0 0
0 0 0 0 0 0 0 0 0 0 0 0 0 0 0 0 0 0 0 0 0 0 0 0 0 0 0 0 0 0 0 0 0 0 0 0 0 0 0 0 0 0 0
0 0 0 0 0 0 0 0 0 0 0 0 0 0 0 0 0 0 0 0 0 0 0 0 0 0 0 0 0 0 0 0 0 0 0 0 0 0 0 0 0 0 0
0 0 0 0 0 0 0 0 0 0 0 0 0 0 0 0 0 0 0 0 0 0 0 0 0 0 0 0 0 0 0 0 0 0 0 0 0 0 0 0 0 0 0
0 0 0 0 0 0 0 0 0 0 0 0 0 0 0 0 0 0 0 0 0 0 0 0 0 0 0 0 0 0 0 0 0 0 0 0 0 0 0 0 0 0 0
0 0 0 0 0 0 0 0 0 0 0 0 0 0 0 0 0 0 0 0 0 0 0 0 0 0 0 0 0 0 0 0 0 0 0 0 0 0 0 0 0 0 0
0 0 0 0 0 0 0 0 0 0 0 0 0 0 0 0 0 0 0 0 0 0 0 0 0 0 0 0 0 0 0 0 0 0 0 0 0 0 0 0 0 0 -0
0 0 0 0 0 0 0 0 0 0 0 0 0 0 0 0 0 0 0 0 0 0 0 0 0 0 0 0 0 0 0 0 0 0 0 0 0 0 0 0 0 -0 -0
0 0 0 0 0 0 0 0 0 0 0 0 0 0 0 0 0 0 0 0 0 0 0 0 0 0 0 0 0 0 0 0 0 0 0 0 0 0 0 0 -0 -0 -0
Wind_Speed_500mb
30 28 26 23 23 27 29 28 25 22 19 13 10 11 13 13 17 20 23 26 30 32 34 35 38 43 46 47 50 51 50 51 61 82 69 69 68 65 66 69 65 73 74
32 29 28 27 28 27 24 21 20 20 17 14 14 17 19 21 22 24 26 27 27 28 30 32 36 36 38 43 48 48 53 55 65 85 94 95 94 91 90 88 83 85 89
33 32 33 33 31 30 28 25 22 19 18 18 17 18 19 20 20 20 20 21 22 23 23 23 22 26 31 32 35 42 45 46 47 62 82 84 87 85 89 87 89 91 91
35 37 36 35 34 32 28 25 21 18 16 16 15 15 17 16 16 17 18 19 19 19 21 22 24 29 32 32 34 39 43 46 51 57 62 74 78 76 75 82 87 82 86
44 44 42 39 34 29 25 23 20 18 16 15 13 12 14 13 14 13 15 18 21 23 25 27 30 35 39 43 48 50 52 54 58 63 69 76 79 81 74 79 85 93 95
49 45 40 34 31 29 26 22 18 17 15 11 10 10 11 14 19 23 23 25 28 30 31 33 34 39 42 44 44 48 52 54 61 66 70 76 82 79 80 79 85 91 101
46 42 40 35 31 28 25 24 23 16 9 8 9 10 12 15 19 24 26 26 28 30 33 36 37 41 46 48 51 54 58 59 59 62 66 66 74 71 75 84 88 95 107
50 46 41 38 35 30 25 20 12 6 14 13 13 14 15 15 18 21 23 26 30 33 35 38 43 46 48 54 59 62 65 67 67 63 63 68 68 71 68 76 84 94 113
52 48 44 40 36 31 24 20 19 23 26 20 17 15 13 14 19 24 28 30 33 35 40 44 49 52 56 56 60 69 73 73 68 59 56 61 65 66 62 66 71 72 102
52 48 43 39 34 28 26 24 20 16 16 17 15 12 13 14 19 24 28 31 33 35 38 43 46 53 55 53 58 64 72 74 76 77 76 75 70 64 54 52 57 66 77
53 49 45 39 33 29 23 19 15 16 15 14 11 13 15 15 19 23 29 34 39 42 45 48 51 53 52 52 49 58 60 64 71 73 73 71 69 65 58 47 44 57 74
50 45 39 31 25 20 16 12 17 21 18 17 14 13 14 17 21 25 29 34 40 44 48 51 52 49 49 55 56 54 53 59 66 70 71 71 70 68 64 64 63 63 71
46 41 34 26 22 19 18 22 23 21 18 14 12 11 14 19 24 28 32 36 40 42 45 46 46 54 56 55 53 52 54 58 63 68 72 73 71 71 72 72 71 72 75
43 36 29 25 21 27 30 26 22 17 12 12 14 15 17 20 25 29 34 36 38 40 45 49 50 52 51 50 52 53 53 56 60 66 71 75 75 75 77 75 79 83 89
38 35 32 27 30 31 27 20 14 13 13 13 14 16 18 20 24 28 31 35 38 39 45 46 50 55 58 60 59 57 57 58 61 64 69 75 77 78 78 77 81 86 86
41 31 30 36 32 27 22 18 16 13 11 12 16 18 20 21 24 27 31 32 33 39 45 50 51 53 57 59 62 64 61 57 58 61 64 69 76 78 81 82 83 84 90
35 38 35 32 28 24 22 18 14 13 11 12 15 18 19 21 23 27 30 32 33 39 44 46 50 53 56 58 61 64 67 64 63 64 66 69 74 78 81 85 86 89 94
38 35 32 30 28 25 22 19 15 12 10 15 18 19 20 20 23 26 30 34 32 34 43 48 51 54 57 60 63 66 66 68 67 65 67 71 76 81 85 87 89 91 94
35 33 31 29 26 22 18 15 13 14 14 14 16 21 24 24 24 27 31 39 45 46 49 49 50 53 56 59 62 64 64 66 66 68 68 72 77 80 86 88 95 96 97
35 32 29 25 22 19 17 16 16 16 16 16 18 24 29 32 28 29 33 39 44 49 53 55 55 55 56 58 61 63 66 66 68 69 71 74 76 78 85 94 98 101 104
33 30 27 24 20 18 17 16 17 18 20 19 20 26 33 38 38 39 41 41 45 49 53 57 57 57 57 58 60 63 66 68 68 68 74 77 76 84 83 92 98 104 107
32 28 24 21 19 18 18 18 21 22 23 25 24 25 32 36 40 42 43 44 45 48 52 57 59 59 59 59 61 63 66 68 69 69 75 79 80 82 83 93 98 107 109
29 25 23 21 20 19 20 22 23 25 26 27 30 31 32 35 39 42 44 45 47 49 51 55 59 60 58 59 59 61 65 66 68 67 74 80 83 78 82 93 99 101 102
26 23 21 20 22 22 23 23 25 25 29 30 32 34 37 39 41 42 45 46 48 50 52 55 58 60 61 61 62 61 62 62 63 65 68 75 72 73 81 90 91 99 96
26 23 23 23 23 24 24 25 26 27 30 33 36 38 40 43 45 46 47 49 51 54 55 57 60 61 63 64 64 61 62 58 58 57 60 64 71 76 83 87 90 99 97
28 25 25 26 26 27 28 29 30 32 34 37 40 42 44 46 47 49 50 52 55 57 59 61 63 66 67 67 66 65 64 57 57 49 52 61 68 71 81 89 93 91 98
Wind_Direction_500mb
227 220 213 204 213 222 221 218 217 220 225 228 229 238 247 258 266 272 280 284 287 287 287 286 285 285 286 282 279 278 278 276 287 279 283 289 293 295 296 296 298 297 297
223 219 212 207 206 200 194 182 176 177 185 202 227 248 262 270 277 281 283 286 290 294 298 300 297 293 290 292 290 286 281 277 278 281 285 287 289 288 288 287 285 286 288
215 209 201 193 184 179 179 182 189 198 210 223 235 251 261 269 276 283 291 299 304 305 308 310 312 311 306 299 301 303 300 299 291 287 289 293 296 299 298 295 292 289 286
206 199 194 189 188 190 192 195 201 211 223 235 241 260 276 284 287 295 304 309 310 312 311 313 318 319 317 319 312 310 309 308 307 301 297 301 305 309 310 309 303 300 298
206 201 199 198 199 200 204 208 211 214 218 219 227 248 270 282 288 294 307 316 323 328 329 327 326 322 321 318 316 314 312 311 308 307 308 306 309 312 315 314 310 307 305
207 205 203 203 205 208 209 206 204 211 211 212 234 251 285 309 313 316 321 324 325 326 326 327 327 323 322 319 317 313 313 314 312 313 309 308 309 309 309 307 306 309 310
209 208 206 207 207 204 203 208 207 199 195 236 255 273 280 299 304 307 314 322 326 330 332 332 332 330 329 326 323 321 318 316 316 314 311 311 308 309 306 302 300 297 293
210 210 210 208 207 203 194 196 201 250 275 272 279 283 290 297 304 312 320 325 328 333 338 339 337 336 333 329 327 325 322 320 320 316 309 305 304 305 304 300 300 298 295
208 207 205 203 202 202 201 210 224 236 241 250 270 280 289 303 308 316 323 327 330 336 340 339 338 336 332 333 328 325 324 325 324 318 310 306 305 306 303 302 300 300 298
204 204 202 201 200 204 205 211 220 227 250 253 254 276 295 306 311 314 318 321 323 325 329 330 331 329 329 333 331 325 322 323 320 319 319 317 317 317 314 309 309 299 295
204 202 201 203 204 211 215 221 241 242 241 241 250 272 288 298 308 310 319 322 325 333 333 332 331 328 332 332 329 323 321 321 317 320 319 321 320 319 315 300 291 288 285
202 201 203 204 204 208 218 237 255 247 229 236 249 265 293 308 315 322 325 326 330 332 333 330 330 334 330 328 328 328 324 323 321 322 324 325 325 323 318 311 305 294 276
198 195 191 197 218 230 236 234 231 228 232 243 263 292 308 320 326 326 326 330 333 333 330 330 330 328 328 328 331 330 326 327 328 327 326 326 326 323 323 324 323 316 307
192 193 198 204 214 227 225 224 225 231 246 274 294 306 316 319 322 324 327 328 329 330 329 331 330 325 325 328 331 333 332 332 330 327 325 324 324 325 325 329 327 327 322
194 208 210 206 216 219 217 216 220 233 247 265 282 301 317 326 321 321 327 332 336 332 327 332 333 333 335 336 335 333 331 330 328 326 325 324 323 323 324 328 327 325 321
208 203 208 210 207 205 205 210 219 232 253 281 298 312 317 318 318 323 329 335 334 330 332 333 334 335 337 337 336 333 331 329 326 324 325 325 325 323 323 324 325 325 320
199 206 206 204 202 201 205 211 222 233 249 269 286 297 304 315 325 326 327 330 332 328 328 331 333 335 336 336 335 333 331 331 327 324 325 326 326 324 322 322 325 323 317
200 201 203 204 203 205 206 209 212 216 239 268 279 290 301 314 320 321 321 321 322 320 325 330 333 335 334 333 333 332 330 330 328 324 322 323 326 324 323 322 321 315 313
199 200 202 203 204 207 211 218 230 240 249 262 280 294 300 310 318 316 316 319 322 325 324 326 329 331 330 328 329 327 326 329 329 325 322 320 322 321 322 323 320 318 312
204 202 202 204 208 213 223 234 246 257 267 275 287 296 302 309 310 309 317 319 319 320 321 322 325 324 324 325 324 324 323 327 329 327 325 323 321 322 322 322 322 316 315
202 201 203 207 213 224 237 251 266 278 285 294 304 307 309 313 316 317 318 317 316 317 317 316 317 318 321 322 321 321 322 324 327 326 324 323 323 322 321 324 326 325 316
203 202 206 213 224 235 248 261 271 280 293 303 305 306 305 309 312 315 317 317 315 313 313 313 316 318 320 319 318 317 318 321 324 323 322 323 319 318 322 326 329 326 321
206 209 214 222 235 247 258 269 279 289 297 302 307 310 310 312 313 315 314 314 314 315 315 315 316 317 317 317 315 314 314 317 320 319 320 320 318 316 323 327 327 319 314
215 222 230 239 248 255 265 275 284 292 299 304 308 312 313 312 312 313 314 314 313 314 316 317 317 318 317 316 314 314 312 311 315 315 318 317 320 325 326 327 318 312 315
228 231 241 250 261 269 275 282 288 293 298 305 307 306 308 309 311 311 312 312 314 314 317 317 318 318 318 316 314 312 310 307 308 309 312 315 322 326 326 322 312 320 315
238 245 253 261 266 272 278 283 289 294 298 300 303 306 308 309 310 311 313 314 315 315 316 317 318 319 318 316 315 310 309 308 308 311 312 315 320 322 326 321 325 320 319
Wind_Speed_850mb
30 28 26 23 23 27 29 28 25 22 19 13 10 11 13 13 17 20 23 26 30 32 34 35 38 43 46 47 50 51 50 51 61 82 69 69 68 65 66 69 65 73 74
32 29 28 27 28 27 24 21 20 20 17 14 14 17 19 21 22 24 26 27 27 28 30 32 36 36 38 43 48 48 53 55 65 85 94 95 94 91 90 88 83 85 89
33 32 33 33 31 30 28 25 22 19 18 18 17 18 19 20 20 20 20 21 22 23 23 23 22 26 31 32 35 42 45 46 47 62 82 84 87 85 89 87 89 91 91
35 37 36 35 34 32 28 25 21 18 16 16 15 15 17 16 16 17 18 19 19 19 21 22 24 29 32 32 34 39 43 46 51 57 62 74 78 76 75 82 87 82 86
44 44 42 39 34 29 25 23 20 18 16 15 13 12 14 13 14 13 15 18 21 23 25 27 30 35 39 43 48 50 52 54 58 63 69 76 79 81 74 79 85 93 95
49 45 40 34 31 29 26 22 18 17 15 11 10 10 11 14 19 23 23 25 28 30 31 33 34 39 42 44 44 48 52 54 61 66 70 76 82 79 80 79 85 91 101
46 42 40 35 31 28 25 24 23 16 9 8 9 10 12 15 19 24 26 26 28 30 33 36 37 41 46 48 51 54 58 59 59 62 66 66 74 71 75 84 88 95 107
50 46 41 38 35 30 25 20 12 6 14 13 13 14 15 15 18 21 23 26 30 33 35 38 43 46 48 54 59 62 65 67 67 63 63 68 68 71 68 76 84 94 113
52 48 44 40 36 31 24 20 19 23 26 20 17 15 13 14 19 24 28 30 33 35 40 44 49 52 56 56 60 69 73 73 68 59 56 61 65 66 62 66 71 72 102
52 48 43 39 34 28 26 24 20 16 16 17 15 12 13 14 19 24 28 31 33 35 38 43 46 53 55 53 58 64 72 74 76 77 76 75 70 64 54 52 57 66 77
53 49 45 39 33 29 23 19 15 16 15 14 11 13 15 15 19 23 29 34 39 42 45 48 51 53 52 52 49 58 60 64 71 73 73 71 69 65 58 47 44 57 74
50 45 39 31 25 20 16 12 17 21 18 17 14 13 14 17 21 25 29 34 40 44 48 51 52 49 49 55 56 54 53 59 66 70 71 71 70 68 64 64 63 63 71
46 41 34 26 22 19 18 22 23 21 18 14 12 11 14 19 24 28 32 36 40 42 45 46 46 54 56 55 53 52 54 58 63 68 72 73 71 71 72 72 71 72 75
43 36 29 25 21 27 30 26 22 17 12 12 14 15 17 20 25 29 34 36 38 40 45 49 50 52 51 50 52 53 53 56 60 66 71 75 75 75 77 75 79 83 89
38 35 32 27 30 31 27 20 14 13 13 13 14 16 18 20 24 28 31 35 38 39 45 46 50 55 58 60 59 57 57 58 61 64 69 75 77 78 78 77 81 86 86
41 31 30 36 32 27 22 18 16 13 11 12 16 18 20 21 24 27 31 32 33 39 45 50 51 53 57 59 62 64 61 57 58 61 64 69 76 78 81 82 83 84 90
35 38 35 32 28 24 22 18 14 13 11 12 15 18 19 21 23 27 30 32 33 39 44 46 50 53 56 58 61 64 67 64 63 64 66 69 74 78 81 85 86 89 94
38 35 32 30 28 25 22 19 15 12 10 15 18 19 20 20 23 26 30 34 32 34 43 48 51 54 57 60 63 66 66 68 67 65 67 71 76 81 85 87 89 91 94
35 33 31 29 26 22 18 15 13 14 14 14 16 21 24 24 24 27 31 39 45 46 49 49 50 53 56 59 62 64 64 66 66 68 68 72 77 80 86 88 95 96 97
35 32 29 25 22 19 17 16 16 16 16 16 18 24 29 32 28 29 33 39 44 49 53 55 55 55 56 58 61 63 66 66 68 69 71 74 76 78 85 94 98 101 104
33 30 27 24 20 18 17 16 17 18 20 19 20 26 33 38 38 39 41 41 45 49 53 57 57 57 57 58 60 63 66 68 68 68 74 77 76 84 83 92 98 104 107
32 28 24 21 19 18 18 18 21 22 23 25 24 25 32 36 40 42 43 44 45 48 52 57 59 59 59 59 61 63 66 68 69 69 75 79 80 82 83 93 98 107 109
29 25 23 21 20 19 20 22 23 25 26 27 30 31 32 35 39 42 44 45 47 49 51 55 59 60 58 59 59 61 65 66 68 67 74 80 83 78 82 93 99 101 102
26 23 21 20 22 22 23 23 25 25 29 30 32 34 37 39 41 42 45 46 48 50 52 55 58 60 61 61 62 61 62 62 63 65 68 75 72 73 81 90 91 99 96
26 23 23 23 23 24 24 25 26 27 30 33 36 38 40 43 45 46 47 49 51 54 55 57 60 61 63 64 64 61 62 58 58 57 60 64 71 76 83 87 90 99 97
28 25 25 26 26 27 28 29 30 32 34 37 40 42 44 46 47 49 50 52 55 57 59 61 63 66 67 67 66 65 64 57 57 49 52 61 68 71 81 89 93 91 98
Wind_Direction_850mb
227 220 213 204 213 222 221 218 217 220 225 228 229 238 247 258 266 272 280 284 287 287 287 286 285 285 286 282 279 278 278 276 287 279 283 289 293 295 296 296 298 297 297
223 219 212 207 206 200 194 182 176 177 185 202 227 248 262 270 277 281 283 286 290 294 298 300 297 293 290 292 290 286 281 277 278 281 285 287 289 288 288 287 285 286 288
215 209 201 193 184 179 179 182 189 198 210 223 235 251 261 269 276 283 291 299 304 305 308 310 312 311 306 299 301 303 300 299 291 287 289 293 296 299 298 295 292 289 286
206 199 194 189 188 190 192 195 201 211 223 235 241 260 276 284 287 295 304 309 310 312 311 313 318 319 317 319 312 310 309 308 307 301 297 301 305 309 310 309 303 300 298
206 201 199 198 199 200 204 208 211 214 218 219 227 248 270 282 288 294 307 316 323 328 329 327 326 322 321 318 316 314 312 311 308 307 308 306 309 312 315 314 310 307 305
207 205 203 203 205 208 209 206 204 211 211 212 234 251 285 309 313 316 321 324 325 326 326 327 327 323 322 319 317 313 313 314 312 313 309 308 309 309 309 307 306 309 310
209 208 206 207 207 204 203 208 207 199 195 236 255 273 280 299 304 307 314 322 326 330 332 332 332 330 329 326 323 321 318 316 316 314 311 311 308 309 306 302 300 297 293
210 210 210 208 207 203 194 196 201 250 275 272 279 283 290 297 304 312 320 325 328 333 338 339 337 336 333 329 327 325 322 320 320 316 309 305 304 305 304 300 300 298 295
208 207 205 203 202 202 201 210 224 236 241 250 270 280 289 303 308 316 323 327 330 336 340 339 338 336 332 333 328 325 324 325 324 318 310 306 305 306 303 302 300 300 298
204 204 202 201 200 204 205 211 220 227 250 253 254 276 295 306 311 314 318 321 323 325 329 330 331 329 329 333 331 325 322 323 320 319 319 317 317 317 314 309 309 299 295
204 202 201 203 204 211 215 221 241 242 241 241 250 272 288 298 308 310 319 322 325 333 333 332 331 328 332 332 329 323 321 321 317 320 319 321 320 319 315 300 291 288 285
202 201 203 204 204 208 218 237 255 247 229 236 249 265 293 308 315 322 325 326 330 332 333 330 330 334 330 328 328 328 324 323 321 322 324 325 325 323 318 311 305 294 276
198 195 191 197 218 230 236 234 231 228 232 243 263 292 308 320 326 326 326 330 333 333 330 330 330 328 328 328 331 330 326 327 328 327 326 326 326 323 323 324 323 316 307
192 193 198 204 214 227 225 224 225 231 246 274 294 306 316 319 322 324 327 328 329 330 329 331 330 325 325 328 331 333 332 332 330 327 325 324 324 325 325 329 327 327 322
194 208 210 206 216 219 217 216 220 233 247 265 282 301 317 326 321 321 327 332 336 332 327 332 333 333 335 336 335 333 331 330 328 326 325 324 323 323 324 328 327 325 321
208 203 208 210 207 205 205 210 219 232 253 281 298 312 317 318 318 323 329 335 334 330 332 333 334 335 337 337 336 333 331 329 326 324 325 325 325 323 323 324 325 325 320
199 206 206 204 202 201 205 211 222 233 249 269 286 297 304 315 325 326 327 330 332 328 328 331 333 335 336 336 335 333 331 331 327 324 325 326 326 324 322 322 325 323 317
200 201 203 204 203 205 206 209 212 216 239 268 279 290 301 314 320 321 321 321 322 320 325 330 333 335 334 333 333 332 330 330 328 324 322 323 326 324 323 322 321 315 313
199 200 202 203 204 207 211 218 230 240 249 262 280 294 300 310 318 316 316 319 322 325 324 326 329 331 330 328 329 327 326 329 329 325 322 320 322 321 322 323 320 318 312
204 202 202 204 208 213 223 234 246 257 267 275 287 296 302 309 310 309 317 319 319 320 321 322 325 324 324 325 324 324 323 327 329 327 325 323 321 322 322 322 322 316 315
202 201 203 207 213 224 237 251 266 278 285 294 304 307 309 313 316 317 318 317 316 317 317 316 317 318 321 322 321 321 322 324 327 326 324 323 323 322 321 324 326 325 316
203 202 206 213 224 235 248 261 271 280 293 303 305 306 305 309 312 315 317 317 315 313 313 313 316 318 320 319 318 317 318 321 324 323 322 323 319 318 322 326 329 326 321
206 209 214 222 235 247 258 269 279 289 297 302 307 310 310 312 313 315 314 314 314 315 315 315 316 317 317 317 315 314 314 317 320 319 320 320 318 316 323 327 327 319 314
215 222 230 239 248 255 265 275 284 292 299 304 308 312 313 312 312 313 314 314 313 314 316 317 317 318 317 316 314 314 312 311 315 315 318 317 320 325 326 327 318 312 315
228 231 241 250 261 269 275 282 288 293 298 305 307 306 308 309 311 311 312 312 314 314 317 317 318 318 318 316 314 312 310 307 308 309 312 315 322 326 326 322 312 320 315
238 245 253 261 266 272 278 283 289 294 298 300 303 306 308 309 310 311 313 314 315 315 316 317 318 319 318 316 315 310 309 308 308 311 312 315 320 322 326 321 325 320 319